Flag for Saudi Arabia Weather past 2 weeks in Qatif, Saudi Arabia

Now
61 °F

Sunny.


Feels Like: 61 °F
Forecast: 66 / 79 °F
Wind: 7 mph from South

Location: King Fahd International Airport

Current Time: Dec 20, 2014 at 9:47:22 AM

Latest Report: Dec 20, 2014 at 9:00 AM


Visibility: 10 mi

Pressure: 30.18 "Hg

Humidity: 48%

Dew point: 41 °F

Location of QatifLocation

Historic Weather in Qatif — Graph

°F

Qatif temperature yesterday

Maximum temperature yesterday: 72 °F (at 2:00 PM)
Minimum temperature yesterday: 50 °F (at 4:00 AM)
Average temperature yesterday: 60 °F

Past Weeks' High & Low Weather Summary

 TemperatureHumidityPressure
High81 °F (Dec 11, 1:00 PM)94% (Dec 10, 3:00 AM)30.27 "Hg (Dec 10, 3:00 AM)
Low50 °F (Dec 19, 4:00 AM)21% (Dec 12, 3:00 PM)30.04 "Hg (Dec 11, 2:00 PM)
Average65 °F65%30.12 "Hg
* Reported Dec 5 8:00 AM — Dec 20 8:00 AM, Qatif, Weather by CustomWeather, © 2014

Note: Actual official high and low records may vary slightly from our data, if they occured in-between our weather recording intervals... More about our weather records

Advertising

Qatif weather history for previous 24 hours

 ConditionsComfort  
Time TempWeatherWind HumidityBarometerVisibility
8:00 AM
Dec 20
57 °FSunny.3 mph55%30.18 "Hg10 mi
6:00 AM50 °FClear.5 mph67%30.15 "Hg10 mi
5:00 AM50 °FClear.5 mph71%30.12 "Hg10 mi
4:00 AM52 °FClear.2 mph67%30.12 "Hg10 mi
3:00 AM52 °FClear.3 mph67%30.12 "Hg10 mi
2:00 AM52 °FClear.5 mph62%30.15 "Hg10 mi
1:00 AM52 °FClear.1 mph67%30.15 "Hg10 mi
12:00 AM54 °FClear.1 mph67%30.15 "Hg10 mi
11:00 PM
Dec 19
57 °FClear.3 mph67%30.15 "Hg10 mi
10:00 PM57 °FClear.No wind55%30.18 "Hg10 mi
9:00 PM59 °FClear.No wind51%30.18 "Hg10 mi
8:00 PM61 °FClear.3 mph45%30.18 "Hg10 mi
7:00 PM64 °FClear.No wind40%30.18 "Hg10 mi
6:00 PM66 °FClear.2 mph37%30.15 "Hg10 mi
5:00 PM70 °FClear.3 mph33%30.15 "Hg10 mi
4:00 PM72 °FSunny.6 mph31%30.15 "Hg10 mi
3:00 PM72 °FSunny.3 mph33%30.15 "Hg10 mi
2:00 PM72 °FSunny.5 mph33%30.15 "Hg10 mi
1:00 PM70 °FSunny.6 mph40%30.18 "Hg10 mi
12:00 PM68 °FSunny.3 mph46%30.18 "Hg10 mi
11:00 AM66 °FSunny.7 mph43%30.24 "Hg10 mi
10:00 AM66 °FSunny.8 mph35%30.24 "Hg10 mi
9:00 AM57 °FSunny.8 mph48%30.27 "Hg10 mi
Weather by CustomWeather, © 2014

See weather overviewHow to use our weather pages